Disclaimer

Please do not use the information listed here in-flight or in-navigation, as they are not provided to us by the airports but are provided by volunteers, so they might be outdated.

Search


Regions


Airport information page

Radio informations:
Tower (TWR) - 118.1 MHz
Ground (GND) - 121.9 MHz
Automatic Terminal Information Service (ATIS) - 128.0 MHz
Approach (APP) - 124.7 MHz

Airport informations:
Latitude: 08° 06' 47.52" N
Longitude: 098° 19' 00.74" E
Elevation: 82 feet - 25 meters
Operating hours: N/A
Operating agency: Civil government, landing fees and diplomatic clearance may be required
Timezone: UTC+7
Fuel: 100/130 MIL Spec, low lead, aviation gasoline (BLUE)

Runway information:
09/27 - 9843 x 148 feet< - >3000 x 45 meters

Recent METARs:
VTSP 152230Z 00000KT 7000 FEW020 24/22 Q1011 NOSIG
VTSP 152300Z 00000KT 7000 FEW020 24/22 Q1012 NOSIG
VTSP 160000Z 00000KT 8000 FEW020 25/22 Q1011 NOSIG

Airport on the map: